Time,TemperatureF,DewpointF,PressureIn,WindDirection,WindDirectionDegrees,WindSpeedMPH,WindSpeedGustMPH,Humidity,HourlyPrecipIn,Conditions,Clouds,dailyrainin,SoftwareType,DateUTC
2013-06-06 00:00:00,78.1,67.9,29.79,South,176,0.0,0.0,71,0.00,,,0.00,Wunderground v.1.15,2013-06-06 05:00:00,
2013-06-06 00:10:00,77.8,67.6,29.78,South,175,0.0,0.0,71,0.00,,,0.00,Wunderground v.1.15,2013-06-06 05:10:00,
2013-06-06 00:15:00,77.6,67.9,29.79,South,176,0.0,0.0,72,0.00,,,0.00,Wunderground v.1.15,2013-06-06 05:15:00,
2013-06-06 00:20:00,77.5,68.2,29.79,South,176,0.0,0.0,73,0.00,,,0.00,Wunderground v.1.15,2013-06-06 05:20:00,
2013-06-06 00:25:00,77.5,68.2,29.78,South,176,0.0,0.0,73,0.00,,,0.00,Wunderground v.1.15,2013-06-06 05:25:00,
2013-06-06 00:35:00,77.6,68.3,29.79,South,176,0.0,0.0,73,0.00,,,0.00,Wunderground v.1.15,2013-06-06 05:35:00,
2013-06-06 00:40:00,77.8,68.4,29.78,South,176,0.0,0.0,73,0.00,,,0.00,Wunderground v.1.15,2013-06-06 05:40:00,
2013-06-06 00:45:00,77.8,68.4,29.79,South,176,0.0,0.0,73,0.00,,,0.00,Wunderground v.1.15,2013-06-06 05:45:00,
2013-06-06 00:50:00,77.8,68.4,29.79,South,176,0.0,0.0,73,0.00,,,0.00,Wunderground v.1.15,2013-06-06 05:50:00,
2013-06-06 01:00:00,77.6,68.3,29.78,South,176,0.0,0.0,73,0.00,,,0.00,Wunderground v.1.15,2013-06-06 06:00:00,
2013-06-06 01:10:00,77.4,68.5,29.78,South,176,0.0,0.0,74,0.00,,,0.00,Wunderground v.1.15,2013-06-06 06:10:00,
2013-06-06 01:20:00,77.2,68.3,29.78,South,176,0.0,0.0,74,0.00,,,0.00,Wunderground v.1.15,2013-06-06 06:20:00,
2013-06-06 01:25:00,77.0,68.1,29.78,South,176,0.0,0.0,74,0.00,,,0.00,Wunderground v.1.15,2013-06-06 06:25:00,
2013-06-06 01:30:00,77.0,68.5,29.79,South,176,0.0,0.0,75,0.00,,,0.00,Wunderground v.1.15,2013-06-06 06:30:00,
2013-06-06 01:35:00,76.9,68.4,29.78,South,176,0.0,0.0,75,0.00,,,0.00,Wunderground v.1.15,2013-06-06 06:35:00,
2013-06-06 01:45:00,76.8,68.7,29.78,South,175,0.0,0.0,76,0.00,,,0.00,Wunderground v.1.15,2013-06-06 06:45:00,
2013-06-06 01:50:00,76.8,68.7,29.78,South,175,0.0,0.0,76,0.00,,,0.00,Wunderground v.1.15,2013-06-06 06:50:00,
2013-06-06 01:55:00,76.8,68.7,29.78,South,175,0.0,0.0,76,0.00,,,0.00,Wunderground v.1.15,2013-06-06 06:55:00,
2013-06-06 02:00:00,76.8,68.7,29.78,South,175,0.0,0.0,76,0.00,,,0.00,Wunderground v.1.15,2013-06-06 07:00:00,
2013-06-06 02:10:00,76.8,68.7,29.77,South,175,0.0,0.0,76,0.00,,,0.00,Wunderground v.1.15,2013-06-06 07:10:00,
2013-06-06 02:15:00,76.8,68.7,29.77,South,175,0.0,0.0,76,0.00,,,0.00,Wunderground v.1.15,2013-06-06 07:15:00,
2013-06-06 02:20:00,76.9,68.8,29.77,South,175,0.0,0.0,76,0.00,,,0.00,Wunderground v.1.15,2013-06-06 07:20:00,
2013-06-06 02:30:00,76.9,68.8,29.78,South,175,0.0,0.0,76,0.00,,,0.00,Wunderground v.1.15,2013-06-06 07:30:00,
2013-06-06 02:35:00,77.0,68.9,29.77,South,175,0.0,0.0,76,0.00,,,0.00,Wunderground v.1.15,2013-06-06 07:35:00,
2013-06-06 02:40:00,77.1,68.9,29.77,South,175,0.0,0.0,76,0.00,,,0.00,Wunderground v.1.15,2013-06-06 07:40:00,
2013-06-06 02:45:00,77.1,68.9,29.77,South,175,0.0,0.0,76,0.00,,,0.00,Wunderground v.1.15,2013-06-06 07:45:00,
2013-06-06 02:50:00,77.2,69.0,29.77,South,175,0.0,0.0,76,0.00,,,0.00,Wunderground v.1.15,2013-06-06 07:50:00,
2013-06-06 03:00:00,77.2,69.0,29.78,South,175,0.0,0.0,76,0.00,,,0.00,Wunderground v.1.15,2013-06-06 08:00:00,
2013-06-06 03:10:00,77.3,69.1,29.78,South,175,0.0,0.0,76,0.00,,,0.00,Wunderground v.1.15,2013-06-06 08:10:00,
2013-06-06 03:15:00,77.4,69.2,29.79,South,175,0.0,0.0,76,0.00,,,0.00,Wunderground v.1.15,2013-06-06 08:15:00,
2013-06-06 03:20:00,77.4,69.2,29.78,South,176,0.0,0.0,76,0.00,,,0.00,Wunderground v.1.15,2013-06-06 08:20:00,
2013-06-06 03:25:00,77.5,69.7,29.81,WNW,289,2.0,12.0,77,0.00,,,0.00,Wunderground v.1.15,2013-06-06 08:25:00,
2013-06-06 03:30:00,77.5,69.3,29.81,NW,318,9.0,11.0,76,0.00,,,0.00,Wunderground v.1.15,2013-06-06 08:30:00,
2013-06-06 03:40:00,76.9,69.1,29.81,WNW,303,11.0,14.0,77,0.00,,,0.00,Wunderground v.1.15,2013-06-06 08:40:00,
2013-06-06 03:45:00,76.2,68.8,29.81,NNW,338,11.0,14.0,78,0.00,,,0.00,Wunderground v.1.15,2013-06-06 08:45:00,
2013-06-06 03:50:00,75.3,68.3,29.81,NW,309,13.0,15.0,79,0.00,,,0.00,Wunderground v.1.15,2013-06-06 08:50:00,
2013-06-06 03:55:00,74.5,67.9,29.80,NW,320,12.0,15.0,80,0.00,,,0.00,Wunderground v.1.15,2013-06-06 08:55:00,
2013-06-06 04:00:00,74.0,67.8,29.79,NW,317,9.0,9.0,81,0.00,,,0.00,Wunderground v.1.15,2013-06-06 09:00:00,
2013-06-06 04:10:00,73.6,68.1,29.78,NW,315,5.0,5.0,83,0.00,,,0.00,Wunderground v.1.15,2013-06-06 09:10:00,
2013-06-06 04:15:00,73.5,68.0,29.78,NNW,344,4.0,7.0,83,0.00,,,0.00,Wunderground v.1.15,2013-06-06 09:15:00,
2013-06-06 04:25:00,73.4,68.6,29.77,NNW,336,4.0,8.0,85,0.00,,,0.00,Wunderground v.1.15,2013-06-06 09:25:00,
2013-06-06 04:30:00,73.4,69.0,29.78,NNW,331,5.0,5.0,86,0.00,,,0.00,Wunderground v.1.15,2013-06-06 09:30:00,
2013-06-06 04:35:00,73.4,69.0,29.78,NW,326,5.0,9.0,86,0.00,,,0.00,Wunderground v.1.15,2013-06-06 09:35:00,
2013-06-06 04:40:00,73.2,69.1,29.80,NW,314,7.0,12.0,87,0.00,,,0.00,Wunderground v.1.15,2013-06-06 09:40:00,
2013-06-06 04:50:00,72.4,68.3,29.80,WNW,296,13.0,14.0,87,0.00,,,0.00,Wunderground v.1.15,2013-06-06 09:50:00,
2013-06-06 04:55:00,71.9,67.5,29.80,WNW,301,13.0,14.0,86,0.00,,,0.00,Wunderground v.1.15,2013-06-06 09:55:00,
2013-06-06 05:00:00,71.3,67.2,29.81,WNW,283,13.0,13.0,87,1.33,,,0.06,Wunderground v.1.15,2013-06-06 10:00:00,
2013-06-06 05:10:00,70.2,66.8,29.82,West,278,11.0,11.0,89,0.85,,,0.24,Wunderground v.1.15,2013-06-06 10:10:00,
2013-06-06 05:15:00,69.6,66.5,29.82,WNW,297,10.0,11.0,90,0.85,,,0.28,Wunderground v.1.15,2013-06-06 10:15:00,
2013-06-06 05:20:00,69.2,66.1,29.82,WNW,284,9.0,9.0,90,0.25,,,0.31,Wunderground v.1.15,2013-06-06 10:20:00,
2013-06-06 05:25:00,68.9,66.2,29.82,NW,304,8.0,9.0,91,0.24,,,0.33,Wunderground v.1.15,2013-06-06 10:25:00,
2013-06-06 05:35:00,68.8,66.4,29.79,North,355,6.0,8.0,92,0.08,,,0.34,Wunderground v.1.15,2013-06-06 10:35:00,
2013-06-06 05:40:00,68.9,66.5,29.79,NNW,334,6.0,8.0,92,0.06,,,0.34,Wunderground v.1.15,2013-06-06 10:40:00,
2013-06-06 05:45:00,68.9,66.5,29.79,North,11,6.0,8.0,92,0.04,,,0.34,Wunderground v.1.15,2013-06-06 10:45:00,
2013-06-06 05:50:00,68.9,66.5,29.79,NNE,18,5.0,6.0,92,0.00,,,0.34,Wunderground v.1.15,2013-06-06 10:50:00,
2013-06-06 05:55:00,68.7,66.3,29.78,NNE,26,4.0,7.0,92,0.00,,,0.34,Wunderground v.1.15,2013-06-06 10:55:00,
2013-06-06 06:00:00,68.5,66.1,29.78,NNE,20,5.0,5.0,92,0.00,,,0.34,Wunderground v.1.15,2013-06-06 11:00:00,
2013-06-06 06:10:00,68.2,65.8,29.78,NNE,13,5.0,5.0,92,0.00,,,0.34,Wunderground v.1.15,2013-06-06 11:10:00,
2013-06-06 06:20:00,68.2,65.8,29.79,NNE,13,1.0,1.0,92,0.00,,,0.34,Wunderground v.1.15,2013-06-06 11:20:00,
2013-06-06 06:25:00,68.1,65.7,29.81,NNE,13,0.0,1.0,92,0.00,,,0.34,Wunderground v.1.15,2013-06-06 11:25:00,
2013-06-06 06:30:00,68.1,66.0,29.81,NNE,13,0.0,0.0,93,0.00,,,0.34,Wunderground v.1.15,2013-06-06 11:30:00,
2013-06-06 06:35:00,68.1,66.0,29.81,NNE,13,0.0,0.0,93,0.00,,,0.34,Wunderground v.1.15,2013-06-06 11:35:00,
2013-06-06 06:45:00,68.1,66.0,29.80,NNE,13,0.0,0.0,93,0.00,,,0.34,Wunderground v.1.15,2013-06-06 11:45:00,
2013-06-06 06:50:00,68.1,66.0,29.81,NNE,13,0.0,0.0,93,0.00,,,0.34,Wunderground v.1.15,2013-06-06 11:50:00,
2013-06-06 06:55:00,68.1,66.0,29.81,NNE,13,0.0,0.0,93,0.00,,,0.34,Wunderground v.1.15,2013-06-06 11:55:00,
2013-06-06 07:00:00,68.2,66.1,29.82,NNE,13,0.0,0.0,93,0.00,,,0.34,Wunderground v.1.15,2013-06-06 12:00:00,
2013-06-06 07:10:00,68.3,66.2,29.84,NNE,13,0.0,0.0,93,0.00,,,0.34,Wunderground v.1.15,2013-06-06 12:10:00,
2013-06-06 07:15:00,68.4,66.3,29.84,NNE,17,0.0,0.0,93,0.00,,,0.34,Wunderground v.1.15,2013-06-06 12:15:00,
2013-06-06 07:20:00,68.5,66.4,29.84,North,5,0.0,0.0,93,0.00,,,0.34,Wunderground v.1.15,2013-06-06 12:20:00,
2013-06-06 07:30:00,68.5,66.4,29.84,North,355,0.0,0.0,93,0.00,,,0.34,Wunderground v.1.15,2013-06-06 12:30:00,
2013-06-06 07:35:00,68.5,66.4,29.84,North,355,0.0,0.0,93,0.00,,,0.34,Wunderground v.1.15,2013-06-06 12:35:00,
2013-06-06 07:40:00,68.6,66.8,29.83,North,355,0.0,0.0,94,0.00,,,0.34,Wunderground v.1.15,2013-06-06 12:40:00,
2013-06-06 07:45:00,68.6,66.8,29.85,North,360,0.0,0.0,94,0.00,,,0.34,Wunderground v.1.15,2013-06-06 12:45:00,
2013-06-06 07:50:00,68.8,67.0,29.85,North,360,0.0,0.0,94,0.00,,,0.34,Wunderground v.1.15,2013-06-06 12:50:00,
2013-06-06 08:00:00,69.0,67.2,29.84,North,360,0.0,0.0,94,0.00,,,0.34,Wunderground v.1.15,2013-06-06 13:00:00,
2013-06-06 08:10:00,69.1,67.3,29.84,North,355,0.0,0.0,94,0.00,,,0.34,Wunderground v.1.15,2013-06-06 13:10:00,
2013-06-06 08:15:00,69.3,67.5,29.85,NNW,346,1.0,4.0,94,0.00,,,0.34,Wunderground v.1.15,2013-06-06 13:15:00,
2013-06-06 08:20:00,69.4,67.6,29.85,NNW,337,2.0,4.0,94,0.00,,,0.35,Wunderground v.1.15,2013-06-06 13:20:00,
2013-06-06 08:25:00,69.4,67.6,29.85,NW,316,3.0,4.0,94,0.00,,,0.35,Wunderground v.1.15,2013-06-06 13:25:00,
2013-06-06 08:30:00,69.4,67.6,29.85,NW,316,3.0,3.0,94,0.00,,,0.35,Wunderground v.1.15,2013-06-06 13:30:00,
2013-06-06 08:35:00,69.4,67.6,29.85,NW,319,5.0,8.0,94,0.00,,,0.35,Wunderground v.1.15,2013-06-06 13:35:00,
2013-06-06 08:45:00,69.3,67.5,29.83,NNW,342,4.0,4.0,94,0.00,,,0.35,Wunderground v.1.15,2013-06-06 13:45:00,
2013-06-06 08:50:00,69.4,67.6,29.84,NNW,344,4.0,4.0,94,0.00,,,0.35,Wunderground v.1.15,2013-06-06 13:50:00,
2013-06-06 08:55:00,69.5,67.7,29.83,North,355,4.0,4.0,94,0.00,,,0.35,Wunderground v.1.15,2013-06-06 13:55:00,
2013-06-06 09:00:00,69.6,67.8,29.83,North,360,3.0,3.0,94,0.00,,,0.35,Wunderground v.1.15,2013-06-06 14:00:00,
2013-06-06 09:10:00,69.8,68.0,29.82,NE,38,2.0,2.0,94,0.00,,,0.35,Wunderground v.1.15,2013-06-06 14:10:00,
2013-06-06 09:15:00,69.9,68.1,29.82,WNW,283,2.0,2.0,94,0.00,,,0.35,Wunderground v.1.15,2013-06-06 14:15:00,
2013-06-06 09:25:00,70.4,68.6,29.82,NW,321,1.0,4.0,94,0.00,,,0.35,Wunderground v.1.15,2013-06-06 14:25:00,
2013-06-06 09:30:00,70.8,69.0,29.82,NNW,344,2.0,5.0,94,0.00,,,0.35,Wunderground v.1.15,2013-06-06 14:30:00,
2013-06-06 09:35:00,70.9,69.1,29.82,NNE,21,1.0,5.0,94,0.00,,,0.35,Wunderground v.1.15,2013-06-06 14:35:00,
2013-06-06 09:40:00,70.9,68.8,29.82,NNE,21,1.0,1.0,93,0.00,,,0.35,Wunderground v.1.15,2013-06-06 14:40:00,
2013-06-06 09:45:00,71.1,69.0,29.82,NNE,21,0.0,1.0,93,0.00,,,0.35,Wunderground v.1.15,2013-06-06 14:45:00,
2013-06-06 09:55:00,71.7,69.3,29.81,NNE,24,0.0,5.0,92,0.00,,,0.35,Wunderground v.1.15,2013-06-06 14:55:00,
2013-06-06 10:00:00,72.6,69.8,29.81,NNE,30,2.0,2.0,91,0.00,,,0.35,Wunderground v.1.15,2013-06-06 15:00:00,
2013-06-06 10:10:00,75.0,70.9,29.81,NE,40,1.0,4.0,87,0.00,,,0.35,Wunderground v.1.15,2013-06-06 15:10:00,
2013-06-06 10:15:00,75.8,70.6,29.80,NNW,346,1.0,8.0,84,0.00,,,0.35,Wunderground v.1.15,2013-06-06 15:15:00,
2013-06-06 10:20:00,76.3,70.4,29.80,North,9,3.0,3.0,82,0.00,,,0.35,Wunderground v.1.15,2013-06-06 15:20:00,
2013-06-06 10:25:00,76.9,70.6,29.81,North,5,3.0,3.0,81,0.00,,,0.35,Wunderground v.1.15,2013-06-06 15:25:00,
2013-06-06 10:35:00,76.8,69.8,29.81,NNE,22,3.0,3.0,79,0.00,,,0.35,Wunderground v.1.15,2013-06-06 15:35:00,
2013-06-06 10:40:00,76.6,70.0,29.81,NNE,27,3.0,3.0,80,0.00,,,0.35,Wunderground v.1.15,2013-06-06 15:40:00,
2013-06-06 10:45:00,76.4,69.4,29.81,NE,38,2.0,3.0,79,0.00,,,0.35,Wunderground v.1.15,2013-06-06 15:45:00,
2013-06-06 10:50:00,76.1,69.5,29.81,NE,44,2.0,2.0,80,0.00,,,0.35,Wunderground v.1.15,2013-06-06 15:50:00,
2013-06-06 10:55:00,75.9,69.3,29.81,North,11,4.0,8.0,80,0.00,,,0.35,Wunderground v.1.15,2013-06-06 15:55:00,
2013-06-06 11:00:00,75.4,68.8,29.82,North,360,6.0,7.0,80,0.00,,,0.35,Wunderground v.1.15,2013-06-06 16:00:00,
2013-06-06 11:10:00,74.6,68.4,29.82,North,360,6.0,6.0,81,0.00,,,0.35,Wunderground v.1.15,2013-06-06 16:10:00,
2013-06-06 11:15:00,74.4,68.2,29.82,North,5,5.0,6.0,81,0.00,,,0.35,Wunderground v.1.15,2013-06-06 16:15:00,
2013-06-06 11:20:00,74.5,68.3,29.83,North,10,4.0,4.0,81,0.00,,,0.35,Wunderground v.1.15,2013-06-06 16:20:00,
2013-06-06 11:25:00,74.8,68.2,29.84,North,5,3.0,8.0,80,0.00,,,0.35,Wunderground v.1.15,2013-06-06 16:25:00,
2013-06-06 11:30:00,74.9,67.9,29.84,North,360,3.0,3.0,79,0.00,,,0.35,Wunderground v.1.15,2013-06-06 16:30:00,
2013-06-06 11:35:00,75.0,68.4,29.85,NNW,341,4.0,6.0,80,0.00,,,0.35,Wunderground v.1.15,2013-06-06 16:35:00,
2013-06-06 11:45:00,74.5,67.6,29.84,NW,321,7.0,7.0,79,0.00,,,0.35,Wunderground v.1.15,2013-06-06 16:45:00,
2013-06-06 11:50:00,74.3,67.7,29.86,NNW,330,6.0,6.0,80,0.00,,,0.35,Wunderground v.1.15,2013-06-06 16:50:00,
2013-06-06 11:55:00,74.0,67.4,29.85,NNW,327,6.0,6.0,80,0.00,,,0.35,Wunderground v.1.15,2013-06-06 16:55:00,
2013-06-06 12:00:00,73.7,67.9,29.86,NW,315,7.0,10.0,82,0.00,,,0.35,Wunderground v.1.15,2013-06-06 17:00:00,
2013-06-06 12:10:00,73.1,68.0,29.87,NNW,331,6.0,6.0,84,0.00,,,0.35,Wunderground v.1.15,2013-06-06 17:10:00,
2013-06-06 12:15:00,72.8,67.7,29.87,NNW,334,6.0,10.0,84,0.00,,,0.35,Wunderground v.1.15,2013-06-06 17:15:00,
2013-06-06 12:20:00,72.7,67.6,29.87,NW,321,7.0,7.0,84,0.00,,,0.35,Wunderground v.1.15,2013-06-06 17:20:00,
2013-06-06 12:30:00,72.3,67.2,29.88,NW,323,8.0,8.0,84,0.00,,,0.35,Wunderground v.1.15,2013-06-06 17:30:00,
2013-06-06 12:35:00,72.3,67.2,29.88,NW,325,8.0,8.0,84,0.00,,,0.35,Wunderground v.1.15,2013-06-06 17:35:00,
2013-06-06 12:40:00,72.2,67.1,29.88,NW,321,6.0,6.0,84,0.00,,,0.35,Wunderground v.1.15,2013-06-06 17:40:00,
2013-06-06 12:45:00,72.1,66.6,29.88,NW,311,7.0,7.0,83,0.00,,,0.35,Wunderground v.1.15,2013-06-06 17:45:00,
2013-06-06 12:55:00,72.0,66.6,29.88,NW,317,8.0,9.0,83,0.00,,,0.35,Wunderground v.1.15,2013-06-06 17:55:00,
2013-06-06 13:00:00,71.9,66.5,29.88,WNW,293,10.0,13.0,83,0.00,,,0.35,Wunderground v.1.15,2013-06-06 18:00:00,
2013-06-06 13:10:00,70.5,66.4,29.88,NNW,331,11.0,11.0,87,1.36,,,0.48,Wunderground v.1.15,2013-06-06 18:10:00,
2013-06-06 13:15:00,69.8,66.1,29.88,NNW,331,8.0,11.0,88,0.53,,,0.56,Wunderground v.1.15,2013-06-06 18:15:00,
2013-06-06 13:20:00,69.4,66.3,29.88,NNW,343,6.0,12.0,90,0.68,,,0.60,Wunderground v.1.15,2013-06-06 18:20:00,
2013-06-06 13:25:00,69.3,66.6,29.88,NNW,328,6.0,12.0,91,0.55,,,0.63,Wunderground v.1.15,2013-06-06 18:25:00,
2013-06-06 13:30:00,69.3,66.6,29.88,North,9,6.0,6.0,91,0.73,,,0.70,Wunderground v.1.15,2013-06-06 18:30:00,
2013-06-06 13:40:00,69.7,67.3,29.88,NW,326,5.0,11.0,92,0.11,,,0.71,Wunderground v.1.15,2013-06-06 18:40:00,
2013-06-06 13:45:00,69.8,67.4,29.88,NW,312,7.0,11.0,92,0.06,,,0.71,Wunderground v.1.15,2013-06-06 18:45:00,
2013-06-06 13:50:00,70.0,67.6,29.88,NW,318,8.0,12.0,92,0.04,,,0.71,Wunderground v.1.15,2013-06-06 18:50:00,
2013-06-06 13:55:00,70.3,67.9,29.88,NNW,338,9.0,12.0,92,0.00,,,0.71,Wunderground v.1.15,2013-06-06 18:55:00,
2013-06-06 14:00:00,70.7,68.3,29.88,North,360,8.0,8.0,92,0.00,,,0.71,Wunderground v.1.15,2013-06-06 19:00:00,
2013-06-06 14:10:00,70.7,67.9,29.88,NNE,17,8.0,10.0,91,0.00,,,0.71,Wunderground v.1.15,2013-06-06 19:10:00,
2013-06-06 14:20:00,71.0,68.2,29.88,North,9,8.0,8.0,91,0.00,,,0.71,Wunderground v.1.15,2013-06-06 19:20:00,
2013-06-06 14:25:00,71.7,68.6,29.88,NNW,344,7.0,8.0,90,0.00,,,0.71,Wunderground v.1.15,2013-06-06 19:25:00,
2013-06-06 14:30:00,72.6,69.2,29.88,North,5,7.0,9.0,89,0.00,,,0.71,Wunderground v.1.15,2013-06-06 19:30:00,
2013-06-06 14:35:00,73.5,69.1,29.88,North,355,8.0,9.0,86,0.00,,,0.71,Wunderground v.1.15,2013-06-06 19:35:00,
2013-06-06 14:40:00,73.5,68.4,29.88,North,10,8.0,10.0,84,0.00,,,0.71,Wunderground v.1.15,2013-06-06 19:40:00,
2013-06-06 14:50:00,73.2,67.7,29.87,North,10,8.0,8.0,83,0.00,,,0.71,Wunderground v.1.15,2013-06-06 19:50:00,
2013-06-06 14:55:00,73.4,68.3,29.88,NE,45,7.0,8.0,84,0.00,,,0.71,Wunderground v.1.15,2013-06-06 19:55:00,
2013-06-06 15:00:00,73.3,67.8,29.87,North,10,7.0,9.0,83,0.00,,,0.71,Wunderground v.1.15,2013-06-06 20:00:00,
2013-06-06 15:10:00,73.0,68.2,29.86,NE,55,7.0,7.0,85,0.00,,,0.71,Wunderground v.1.15,2013-06-06 20:10:00,
2013-06-06 15:15:00,73.5,68.7,29.87,NNE,18,6.0,7.0,85,0.00,,,0.71,Wunderground v.1.15,2013-06-06 20:15:00,
2013-06-06 15:20:00,74.0,68.5,29.87,NE,40,6.0,6.0,83,0.00,,,0.71,Wunderground v.1.15,2013-06-06 20:20:00,
2013-06-06 15:30:00,76.3,70.4,29.86,NE,38,7.0,7.0,82,0.00,,,0.71,Wunderground v.1.15,2013-06-06 20:30:00,
2013-06-06 15:35:00,76.9,69.9,29.85,NNE,24,8.0,8.0,79,0.00,,,0.71,Wunderground v.1.15,2013-06-06 20:35:00,
2013-06-06 15:40:00,76.7,68.9,29.85,NE,46,7.0,11.0,77,0.00,,,0.71,Wunderground v.1.15,2013-06-06 20:40:00,
2013-06-06 15:45:00,76.0,68.6,29.85,NNE,17,7.0,11.0,78,0.00,,,0.71,Wunderground v.1.15,2013-06-06 20:45:00,
2013-06-06 15:50:00,75.8,68.4,29.85,NE,35,6.0,10.0,78,0.00,,,0.71,Wunderground v.1.15,2013-06-06 20:50:00,
2013-06-06 16:00:00,77.6,69.4,29.85,NNE,21,7.0,8.0,76,0.00,,,0.71,Wunderground v.1.15,2013-06-06 21:00:00,
2013-06-06 16:10:00,78.2,68.4,29.84,ENE,63,8.0,8.0,72,0.00,,,0.71,Wunderground v.1.15,2013-06-06 21:10:00,
2013-06-06 16:15:00,78.1,67.9,29.84,NNE,28,9.0,9.0,71,0.00,,,0.71,Wunderground v.1.15,2013-06-06 21:15:00,
2013-06-06 16:20:00,78.0,68.2,29.84,NE,34,9.0,9.0,72,0.00,,,0.71,Wunderground v.1.15,2013-06-06 21:20:00,
2013-06-06 16:25:00,78.0,68.6,29.84,NNE,20,8.0,9.0,73,0.00,,,0.71,Wunderground v.1.15,2013-06-06 21:25:00,
2013-06-06 16:30:00,78.3,68.5,29.84,NE,43,7.0,7.0,72,0.00,,,0.71,Wunderground v.1.15,2013-06-06 21:30:00,
2013-06-06 16:40:00,78.7,68.9,29.84,NE,41,8.0,8.0,72,0.00,,,0.71,Wunderground v.1.15,2013-06-06 21:40:00,
2013-06-06 16:45:00,78.7,68.5,29.84,NE,48,8.0,8.0,71,0.00,,,0.71,Wunderground v.1.15,2013-06-06 21:45:00,
2013-06-06 16:50:00,78.5,67.9,29.84,NE,55,8.0,8.0,70,0.00,,,0.71,Wunderground v.1.15,2013-06-06 21:50:00,
2013-06-06 16:55:00,78.5,68.3,29.84,NNE,14,7.0,8.0,71,0.00,,,0.71,Wunderground v.1.15,2013-06-06 21:55:00,
2013-06-06 17:00:00,79.1,68.5,29.84,NNE,28,6.0,10.0,70,0.00,,,0.71,Wunderground v.1.15,2013-06-06 22:00:00,
2013-06-06 17:10:00,79.5,68.4,29.83,NE,34,6.0,6.0,69,0.00,,,0.71,Wunderground v.1.15,2013-06-06 22:10:00,
2013-06-06 17:15:00,79.4,67.9,29.83,NNE,31,5.0,6.0,68,0.00,,,0.71,Wunderground v.1.15,2013-06-06 22:15:00,
2013-06-06 17:20:00,79.0,67.5,29.84,NNE,17,5.0,6.0,68,0.00,,,0.71,Wunderground v.1.15,2013-06-06 22:20:00,
2013-06-06 17:25:00,78.8,68.2,29.84,North,9,5.0,7.0,70,0.00,,,0.71,Wunderground v.1.15,2013-06-06 22:25:00,
2013-06-06 17:30:00,79.0,68.4,29.83,NNW,337,7.0,8.0,70,0.00,,,0.71,Wunderground v.1.15,2013-06-06 22:30:00,
2013-06-06 17:35:00,79.5,68.0,29.83,NNE,12,6.0,8.0,68,0.00,,,0.71,Wunderground v.1.15,2013-06-06 22:35:00,
2013-06-06 17:45:00,79.7,67.3,29.83,North,10,7.0,10.0,66,0.00,,,0.71,Wunderground v.1.15,2013-06-06 22:45:00,
2013-06-06 17:50:00,80.0,67.2,29.84,NE,34,7.0,7.0,65,0.00,,,0.71,Wunderground v.1.15,2013-06-06 22:50:00,
2013-06-06 17:55:00,80.1,67.3,29.83,NNE,24,6.0,7.0,65,0.00,,,0.71,Wunderground v.1.15,2013-06-06 22:55:00,
2013-06-06 18:00:00,80.1,67.3,29.83,NNE,33,6.0,6.0,65,0.00,,,0.71,Wunderground v.1.15,2013-06-06 23:00:00,
2013-06-06 18:10:00,80.0,67.6,29.83,NNE,19,6.0,6.0,66,0.00,,,0.71,Wunderground v.1.15,2013-06-06 23:10:00,
2013-06-06 18:15:00,80.1,66.8,29.83,NNW,348,6.0,7.0,64,0.00,,,0.71,Wunderground v.1.15,2013-06-06 23:15:00,
2013-06-06 18:25:00,79.9,66.6,29.83,North,9,8.0,10.0,64,0.00,,,0.71,Wunderground v.1.15,2013-06-06 23:25:00,
2013-06-06 18:30:00,80.0,66.7,29.83,NNE,26,7.0,9.0,64,0.00,,,0.71,Wunderground v.1.15,2013-06-06 23:30:00,
2013-06-06 18:35:00,79.8,66.5,29.83,North,9,8.0,9.0,64,0.00,,,0.71,Wunderground v.1.15,2013-06-06 23:35:00,
2013-06-06 18:40:00,79.6,66.3,29.83,NE,34,9.0,11.0,64,0.00,,,0.71,Wunderground v.1.15,2013-06-06 23:40:00,
2013-06-06 18:50:00,79.2,66.0,29.83,North,9,7.0,7.0,64,0.00,,,0.71,Wunderground v.1.15,2013-06-06 23:50:00,
2013-06-06 18:55:00,79.1,66.3,29.83,NNW,348,6.0,10.0,65,0.00,,,0.71,Wunderground v.1.15,2013-06-06 23:55:00,
2013-06-06 19:00:00,78.9,65.7,29.83,NE,40,7.0,7.0,64,0.00,,,0.71,Wunderground v.1.15,2013-06-07 00:00:00,
2013-06-06 19:10:00,78.6,65.4,29.83,North,355,8.0,8.0,64,0.00,,,0.71,Wunderground v.1.15,2013-06-07 00:10:00,
2013-06-06 19:15:00,78.4,65.7,29.83,North,360,8.0,12.0,65,0.00,,,0.71,Wunderground v.1.15,2013-06-07 00:15:00,
2013-06-06 19:20:00,78.1,65.8,29.84,North,11,7.0,7.0,66,0.00,,,0.71,Wunderground v.1.15,2013-06-07 00:20:00,
2013-06-06 19:25:00,77.7,65.9,29.84,North,355,7.0,9.0,67,0.00,,,0.71,Wunderground v.1.15,2013-06-07 00:25:00,
2013-06-06 19:35:00,77.1,65.7,29.84,North,5,8.0,12.0,68,0.00,,,0.71,Wunderground v.1.15,2013-06-07 00:35:00,
2013-06-06 19:40:00,76.9,65.5,29.84,NNE,12,7.0,7.0,68,0.00,,,0.71,Wunderground v.1.15,2013-06-07 00:40:00,
2013-06-06 19:45:00,76.7,65.8,29.84,NNE,18,6.0,7.0,69,0.00,,,0.71,Wunderground v.1.15,2013-06-07 00:45:00,
2013-06-06 19:50:00,76.4,65.5,29.85,North,5,7.0,7.0,69,0.00,,,0.71,Wunderground v.1.15,2013-06-07 00:50:00,
2013-06-06 19:55:00,76.2,65.7,29.85,NNE,19,7.0,9.0,70,0.00,,,0.71,Wunderground v.1.15,2013-06-07 00:55:00,
2013-06-06 20:00:00,76.0,65.5,29.85,NNE,17,7.0,7.0,70,0.00,,,0.71,Wunderground v.1.15,2013-06-07 01:00:00,
2013-06-06 20:10:00,75.7,65.6,29.85,NNE,15,6.0,6.0,71,0.00,,,0.71,Wunderground v.1.15,2013-06-07 01:10:00,
2013-06-06 20:20:00,75.4,65.7,29.86,NNE,25,5.0,5.0,72,0.00,,,0.71,Wunderground v.1.15,2013-06-07 01:20:00,
2013-06-06 20:25:00,75.2,65.9,29.86,NNE,19,5.0,5.0,73,0.00,,,0.71,Wunderground v.1.15,2013-06-07 01:25:00,
2013-06-06 20:30:00,75.1,65.9,29.86,NE,37,4.0,11.0,73,0.00,,,0.71,Wunderground v.1.15,2013-06-07 01:30:00,
2013-06-06 20:35:00,74.9,65.7,29.86,NE,38,5.0,11.0,73,0.00,,,0.71,Wunderground v.1.15,2013-06-07 01:35:00,
2013-06-06 20:45:00,74.6,65.8,29.86,NE,35,4.0,7.0,74,0.00,,,0.71,Wunderground v.1.15,2013-06-07 01:45:00,
2013-06-06 20:50:00,74.4,65.6,29.86,NNE,30,4.0,6.0,74,0.00,,,0.71,Wunderground v.1.15,2013-06-07 01:50:00,
2013-06-06 20:55:00,74.2,65.8,29.87,NNE,31,3.0,6.0,75,0.00,,,0.71,Wunderground v.1.15,2013-06-07 01:55:00,
2013-06-06 21:00:00,74.2,65.8,29.87,NNE,33,3.0,5.0,75,0.00,,,0.71,Wunderground v.1.15,2013-06-07 02:00:00,
2013-06-06 21:10:00,73.9,65.5,29.87,NNE,28,3.0,3.0,75,0.00,,,0.71,Wunderground v.1.15,2013-06-07 02:10:00,
2013-06-06 21:15:00,73.8,65.4,29.87,NNE,27,4.0,4.0,75,0.00,,,0.71,Wunderground v.1.15,2013-06-07 02:15:00,
2013-06-06 21:20:00,73.7,65.7,29.87,NNE,28,3.0,3.0,76,0.00,,,0.71,Wunderground v.1.15,2013-06-07 02:20:00,
2013-06-06 21:30:00,73.5,65.5,29.87,NE,36,1.0,2.0,76,0.00,,,0.71,Wunderground v.1.15,2013-06-07 02:30:00,
2013-06-06 21:35:00,73.3,65.3,29.87,NE,36,1.0,2.0,76,0.00,,,0.71,Wunderground v.1.15,2013-06-07 02:35:00,
2013-06-06 21:40:00,73.1,65.5,29.88,NE,36,1.0,1.0,77,0.00,,,0.71,Wunderground v.1.15,2013-06-07 02:40:00,
2013-06-06 21:45:00,73.0,65.4,29.88,NE,36,2.0,4.0,77,0.00,,,0.71,Wunderground v.1.15,2013-06-07 02:45:00,
2013-06-06 21:50:00,72.9,65.6,29.88,NE,36,1.0,1.0,78,0.00,,,0.71,Wunderground v.1.15,2013-06-07 02:50:00,
2013-06-06 22:00:00,72.6,65.3,29.89,NE,36,0.0,0.0,78,0.00,,,0.71,Wunderground v.1.15,2013-06-07 03:00:00,
2013-06-06 22:10:00,72.4,65.5,29.89,NE,36,0.0,0.0,79,0.00,,,0.71,Wunderground v.1.15,2013-06-07 03:10:00,
2013-06-06 22:15:00,72.3,65.4,29.90,NNE,29,1.0,1.0,79,0.00,,,0.71,Wunderground v.1.15,2013-06-07 03:15:00,
2013-06-06 22:20:00,72.2,65.3,29.90,NNE,28,2.0,2.0,79,0.00,,,0.71,Wunderground v.1.15,2013-06-07 03:20:00,
2013-06-06 22:25:00,72.2,65.3,29.90,NNE,28,2.0,2.0,79,0.00,,,0.71,Wunderground v.1.15,2013-06-07 03:25:00,
2013-06-06 22:30:00,72.2,65.3,29.91,NNE,30,3.0,3.0,79,0.00,,,0.71,Wunderground v.1.15,2013-06-07 03:30:00,
2013-06-06 22:35:00,72.2,65.3,29.90,NNE,22,4.0,4.0,79,0.00,,,0.71,Wunderground v.1.15,2013-06-07 03:35:00,
2013-06-06 22:45:00,72.5,65.6,29.91,NNE,19,4.0,6.0,79,0.00,,,0.71,Wunderground v.1.15,2013-06-07 03:45:00,
2013-06-06 22:50:00,72.6,65.7,29.91,NNE,22,3.0,3.0,79,0.00,,,0.71,Wunderground v.1.15,2013-06-07 03:50:00,
2013-06-06 22:55:00,72.6,65.7,29.91,NNE,33,3.0,3.0,79,0.00,,,0.71,Wunderground v.1.15,2013-06-07 03:55:00,
2013-06-06 23:00:00,72.7,65.8,29.91,NNE,30,2.0,2.0,79,0.00,,,0.71,Wunderground v.1.15,2013-06-07 04:00:00,
2013-06-06 23:05:00,72.8,65.9,29.91,NNE,30,1.0,2.0,79,0.00,,,0.71,Wunderground v.1.15,2013-06-07 04:05:00,
2013-06-06 23:10:00,72.7,65.8,29.91,NNE,30,0.0,0.0,79,0.00,,,0.71,Wunderground v.1.15,2013-06-07 04:10:00,
2013-06-06 23:15:00,72.7,65.8,29.91,NNE,30,1.0,3.0,79,0.00,,,0.71,Wunderground v.1.15,2013-06-07 04:15:00,
2013-06-06 23:20:00,72.6,65.7,29.91,NNE,30,1.0,1.0,79,0.00,,,0.71,Wunderground v.1.15,2013-06-07 04:20:00,
2013-06-06 23:25:00,72.4,65.5,29.91,NNE,30,0.0,1.0,79,0.00,,,0.71,Wunderground v.1.15,2013-06-07 04:25:00,
2013-06-06 23:30:00,72.2,65.7,29.91,NNE,30,0.0,0.0,80,0.00,,,0.71,Wunderground v.1.15,2013-06-07 04:30:00,
2013-06-06 23:35:00,72.0,65.5,29.92,NNE,30,0.0,0.0,80,0.00,,,0.71,Wunderground v.1.15,2013-06-07 04:35:00,
2013-06-06 23:40:00,71.9,65.4,29.92,NNE,30,0.0,0.0,80,0.00,,,0.71,Wunderground v.1.15,2013-06-07 04:40:00,
2013-06-06 23:45:00,71.6,65.5,29.92,NNE,30,0.0,0.0,81,0.00,,,0.71,Wunderground v.1.15,2013-06-07 04:45:00,
2013-06-06 23:55:00,71.2,65.1,29.92,NNE,30,0.0,0.0,81,0.00,,,0.71,Wunderground v.1.15,2013-06-07 04:55:00,